Weather History for Baraboo, WI

Change the Weather History Date:

Saturday, August 17, 2013

  Actual Average Record
Temperature  
Mean Temperature 66 °F -  
Max Temperature 83 °F 80 °F 102 °F (1988)
Min Temperature 50 °F 55 °F 37 °F (1981)
Growing Degree Days 16 (Base 50)    
Moisture  
Dew Point 51 °F    
Average Humidity 64    
Maximum Humidity 94    
Minimum Humidity 30    
Precipitation  
Precipitation 0.00 in - - ()
Sea Level Pressure  
Sea Level Pressure 30.21 in    
Wind  
Wind Speed 2 mph (ESE)    
Max Wind Speed 9 mph    
Max Gust Speed -    
Visibility 10 miles    
Events      
Averages and records for this station are not official NWS values.
T = Trace of Precipitation, MM = Missing Value Source: NWS Daily Summary

Daily Weather History Graph

Daily Weather History Graph

Search for Another Location

Airport:

Trip Planner

Search our weather history database for the weather conditions in past years. The results will help you decide how hot, cold, wet, or windy it might be!

Date:

Astronomy

Aug. 17, 2013 Rise Set
Actual Time 6:06 AM CDT 7:58 PM CDT
Civil Twilight 5:35 AM CDT 8:29 PM CDT
Nautical Twilight 4:58 AM CDT 9:07 PM CDT
Astronomical Twilight 4:17 AM CDT 9:47 PM CDT
Moon 5:17 PM CDT (8/17) 2:06 AM CDT (8/17)
Length of Visible Light 14h 53m
Length of Day
13h 52m
Waxing Gibbous, 84% of the Moon is Illuminated
Aug 17
Waxing Gibbous
Aug 20
Full
Aug 28
Last Quarter
Sep 5
New
Sep 12
First Quarter

Hourly Weather History & Observations

Time (CDT) Temp. Dew Point Humidity Pressure Visibility Wind Dir Wind Speed Gust Speed Precip Events Conditions
12:15 AM 56.5 °F 52.3 °F 86% 30.21 in 10.0 mi ESE 4.6 mph - N/A   Clear
12:35 AM 55.9 °F 53.1 °F 90% 30.22 in 10.0 mi Calm Calm - N/A   Clear
12:55 AM 56.7 °F 53.2 °F 88% 30.22 in 10.0 mi Calm Calm - N/A   Clear
1:15 AM 57.2 °F 53.6 °F 88% 30.22 in 10.0 mi Calm Calm - N/A   Clear
1:35 AM 55.8 °F 51.6 °F 86% 30.22 in 10.0 mi Calm Calm - N/A   Clear
1:55 AM 55.0 °F 51.4 °F 88% 30.21 in 10.0 mi Calm Calm - N/A   Clear
2:15 AM 54.5 °F 51.6 °F 90% 30.22 in 10.0 mi Calm Calm - N/A   Clear
2:35 AM 55.4 °F 52.3 °F 89% 30.22 in 10.0 mi Calm Calm - N/A   Clear
2:55 AM 54.5 °F 51.4 °F 89% 30.22 in 10.0 mi Calm Calm - N/A   Clear
3:15 AM 54.5 °F 51.8 °F 91% 30.22 in 10.0 mi Calm Calm - N/A   Clear
3:35 AM 53.6 °F 51.3 °F 92% 30.22 in 10.0 mi Calm Calm - N/A   Clear
3:55 AM 52.9 °F 50.7 °F 92% 30.22 in 10.0 mi Calm Calm - N/A   Clear
4:15 AM 52.7 °F 50.5 °F 92% 30.22 in 2.0 mi Calm Calm - N/A   Clear
4:35 AM 53.1 °F 51.3 °F 94% 30.23 in 7.0 mi Calm Calm - N/A   Clear
4:55 AM 52.3 °F 50.4 °F 93% 30.23 in 7.0 mi Calm Calm - N/A   Clear
5:15 AM 51.6 °F 49.5 °F 92% 30.23 in 5.0 mi Calm Calm - N/A   Clear
5:35 AM 51.6 °F 49.5 °F 92% 30.23 in 1.8 mi Calm Calm - N/A   Mist
5:55 AM 51.3 °F 49.3 °F 93% 30.24 in 10.0 mi Calm Calm - N/A   Clear
6:15 AM 52.5 °F 50.5 °F 93% 30.24 in 5.0 mi Calm Calm - N/A   Clear
6:35 AM 50.9 °F 48.9 °F 93% 30.24 in 10.0 mi Calm Calm - N/A   Clear
6:55 AM 52.0 °F 50.0 °F 93% 30.24 in 10.0 mi Calm Calm - N/A   Clear
7:15 AM 54.0 °F 51.6 °F 92% 30.25 in 10.0 mi Calm Calm - N/A   Clear
7:35 AM 56.1 °F 53.1 °F 89% 30.25 in 10.0 mi Calm Calm - N/A   Clear
7:55 AM 58.3 °F 54.0 °F 86% 30.26 in 10.0 mi Calm Calm - N/A   Clear
8:15 AM 61.0 °F 54.1 °F 78% 30.26 in 10.0 mi Calm Calm - N/A   Clear
8:35 AM 64.2 °F 54.1 °F 70% 30.26 in 10.0 mi Calm Calm - N/A   Clear
8:55 AM 66.9 °F 53.4 °F 62% 30.26 in 10.0 mi Calm Calm - N/A   Clear
9:15 AM 69.3 °F 53.4 °F 57% 30.25 in 10.0 mi Calm Calm - N/A   Clear
9:35 AM 72.3 °F 52.9 °F 50% 30.25 in 10.0 mi East 3.5 mph - N/A   Clear
9:55 AM 73.4 °F 52.9 °F 49% 30.25 in 10.0 mi North 3.5 mph - N/A   Clear
10:15 AM 75.4 °F 54.3 °F 48% 30.26 in 10.0 mi ENE 3.5 mph - N/A   Clear
10:35 AM 75.6 °F 53.2 °F 46% 30.25 in 10.0 mi ENE 4.6 mph - N/A   Clear
10:55 AM 76.3 °F 51.8 °F 42% 30.25 in 10.0 mi East 3.5 mph - N/A   Clear
11:15 AM 77.2 °F 50.2 °F 39% 30.25 in 10.0 mi East 4.6 mph - N/A   Clear
11:35 AM 77.7 °F 50.2 °F 38% 30.25 in 10.0 mi East 4.6 mph - N/A   Clear
11:55 AM 78.4 °F 50.5 °F 38% 30.24 in 10.0 mi NE 4.6 mph - N/A   Clear
12:15 PM 80.2 °F 50.9 °F 36% 30.24 in 10.0 mi SE 5.8 mph - N/A   Clear
12:35 PM 79.7 °F 47.3 °F 32% 30.23 in 10.0 mi SSE 4.6 mph - N/A   Clear
12:55 PM 80.6 °F 46.8 °F 30% 30.23 in 10.0 mi East 4.6 mph - N/A   Clear
1:15 PM 77.9 °F 50.0 °F 38% 30.22 in 10.0 mi Calm Calm - N/A   Clear
1:35 PM 80.1 °F 48.7 °F 33% 30.22 in 10.0 mi East 5.8 mph - N/A   Clear
1:55 PM 81.0 °F 48.9 °F 33% 30.22 in 10.0 mi ESE 9.2 mph - N/A   Clear
2:35 PM 81.5 °F 48.9 °F 32% 30.21 in 10.0 mi South 4.6 mph - N/A   Scattered Clouds
2:55 PM 81.3 °F 48.4 °F 32% 30.20 in 10.0 mi ESE 6.9 mph - N/A   Scattered Clouds
3:15 PM 78.8 °F 47.8 °F 34% 30.20 in 10.0 mi ESE 4.6 mph - N/A   Scattered Clouds
3:35 PM 81.7 °F 47.8 °F 31% 30.19 in 10.0 mi SSE 5.8 mph - N/A   Scattered Clouds
3:55 PM 79.2 °F 47.8 °F 33% 30.19 in 10.0 mi ESE 4.6 mph - N/A   Mostly Cloudy
4:15 PM 78.6 °F 48.4 °F 34% 30.19 in 10.0 mi SE 5.8 mph - N/A   Scattered Clouds
4:35 PM 78.3 °F 48.0 °F 34% 30.19 in 5.0 mi South 3.5 mph - N/A   Haze
5:15 PM 78.3 °F 47.8 °F 34% 30.19 in 10.0 mi SE 4.6 mph - N/A   Scattered Clouds
5:35 PM 79.9 °F 47.7 °F 32% 30.18 in 10.0 mi SE 6.9 mph - N/A   Clear
6:15 PM 78.8 °F 48.7 °F 35% 30.18 in 10.0 mi SE 6.9 mph - N/A   Clear
6:35 PM 77.9 °F 49.5 °F 37% 30.17 in 10.0 mi NNE 5.8 mph - N/A   Clear
6:55 PM 76.5 °F 50.9 °F 41% 30.17 in 10.0 mi SE 5.8 mph - N/A   Clear
7:15 PM 74.1 °F 52.2 °F 46% 30.17 in 10.0 mi SE 4.6 mph - N/A   Clear
7:35 PM 71.6 °F 52.7 °F 51% 30.17 in 10.0 mi SE 4.6 mph - N/A   Clear
7:55 PM 70.0 °F 53.2 °F 55% 30.17 in 10.0 mi SSE 4.6 mph - N/A   Clear
8:15 PM 65.3 °F 53.1 °F 65% 30.17 in 10.0 mi SE 3.5 mph - N/A   Clear
8:35 PM 66.2 °F 53.2 °F 63% 30.17 in 10.0 mi Calm Calm - N/A   Clear
8:55 PM 65.3 °F 53.6 °F 66% 30.18 in 10.0 mi Calm Calm - N/A   Clear
9:15 PM 64.4 °F 53.1 °F 67% 30.18 in 10.0 mi Calm Calm - N/A   Clear
9:35 PM 61.3 °F 52.9 °F 74% 30.18 in 10.0 mi Calm Calm - N/A   Clear
9:55 PM 61.9 °F 52.7 °F 72% 30.18 in 10.0 mi Calm Calm - N/A   Clear
10:15 PM 59.4 °F 52.3 °F 78% 30.18 in 10.0 mi Calm Calm - N/A   Clear
10:35 PM 58.8 °F 51.8 °F 77% 30.18 in 10.0 mi SSE 3.5 mph - N/A   Clear
10:55 PM 58.6 °F 52.0 °F 79% 30.18 in 10.0 mi Calm Calm - N/A   Clear
11:35 PM 57.9 °F 51.4 °F 79% 30.18 in 10.0 mi South 3.5 mph - N/A   Clear
11:55 PM 56.7 °F 51.1 °F 82% 30.19 in 10.0 mi South 3.5 mph - N/A   Clear